Hourly Weather Roundup
Issued by NWS Central Illinois

Home | Current Version | Previous Version | Text Only | Print | Product List | Glossary On
Versions: 1 2 3 4 5 6 7 8 9 10 11 12 13 14 15 16 17 18 19 20 21 22 23 24 25 26 27 28 29 30 31 32 33 34 35 36 37 38 39 40 41 42 43 44 45 46 47 48 49 50
000
NZUS43 KILX 010610
HWRILX

AREA WEATHER ROUNDUP
NATIONAL WEATHER SERVICE, LINCOLN IL
1200 AM CST SUN MAR 01 2015


CITY           SKY/WX    TMP DP  RH WIND       PRES   REMARKS
BLOOMINGTON    FLURRIES  20  18  92 SE5       30.42F WCI  14
6HR MIN TEMP:  19; 6HR MAX TEMP:  20; 6HR PCP: TRACE;

CHAMPAIGN      LGT SNOW  21  19  92 E6        30.42F VSB 3/4 WCI  13
6HR MIN TEMP:  21; 6HR MAX TEMP:  21; 6HR PCP:  0.22;

DECATUR        LGT SNOW  22  20  92 E5        30.42F FOG     WCI  16
6HR MIN TEMP:  21; 6HR MAX TEMP:  22; 6HR PCP: TRACE;

FLORA          LGT SNOW  25  24  97 NE5       30.42F WCI  19
6HR MIN TEMP:  25; 6HR MAX TEMP:  25; 6HR PCP:  0.20;

GALESBURG      FLURRIES  18  17  93 SE3       30.40F
JACKSONVILLE   LGT SNOW  23  20  89 E5        30.41F WCI  17
6HR MIN TEMP:  23; 6HR MAX TEMP:  24;

LACON          LGT SNOW  18  15  88 CALM      30.44F
6HR MIN TEMP:  18; 6HR MAX TEMP:  19;

LAWRENCEVILLE  LGT SNOW  27  25  92 SE3       30.44F VSB 3/4
6HR MIN TEMP:  26; 6HR MAX TEMP:  27; 6HR PCP:  0.21;

LITCHFIELD     LGT SNOW  23  20  89 SE7       30.40F WCI  15
$$


CITY           SKY/WX    TMP DP  RH WIND       PRES   REMARKS
LINCOLN        LGT SNOW  23  20  91 E3        30.46F
6HR MIN TEMP:  22; 6HR MAX TEMP:  23;

MACOMB         CLOUDY    20  19  96 SE3       30.44F
MATTOON        LGT SNOW  24  21  88 SE5       30.41S FOG     WCI  18
6HR MIN TEMP:  22; 6HR MAX TEMP:  24; 6HR PCP:  0.22;

MT CARMEL AP   LGT SNOW  32  28  86 CALM      30.43F
OLNEY-NOBLE AP LGT SNOW  27  27 100 NE3       30.42F VSB 1
PARIS          LGT SNOW  23  22  96 CALM      30.44F VSB 1
6HR MIN TEMP:  22; 6HR MAX TEMP:  24; 6HR PCP:  0.08;

PEORIA         CLOUDY    21  17  84 SE3       30.44F
6HR MIN TEMP:  21; 6HR MAX TEMP:  22; 6HR PCP:  0.02;

PONTIAC        LGT SNOW  20  18  93 SE5       30.45F WCI  13
RANTOUL        LGT SNOW  23  21  92 SE5       30.43F WCI  16
6HR MIN TEMP:  22; 6HR MAX TEMP:  24; 6HR PCP:  0.05;

ROBINSON       LGT SNOW  26  26  97 CALM      30.45F
6HR MIN TEMP:  25; 6HR MAX TEMP:  27; 6HR PCP:  0.17;

SPRINGFIELD    LGT SNOW  22  20  92 E3        30.42F FOG
6HR MIN TEMP:  22; 6HR MAX TEMP:  23; 6HR PCP:  0.30;

TAYLORVILLE    LGT SNOW  23  21  93 CALM      30.42F
$$

...REGIONAL REPORTS...


CITY           SKY/WX    TMP DP  RH WIND       PRES   REMARKS
CHICAGO O`HARE LGT SNOW  18  14  84 S6        30.45F FOG     WCI  10
KANKAKEE       LGT SNOW  19  17  91 CALM      30.46F
MOLINE         PTCLDY     6   3  87 CALM      30.43F FOG
MOUNT VERNON   CLOUDY    28  25  86 CALM      30.42F
PITTSFIELD     LGT SNOW  23  21  92 CALM      30.41F
QUINCY         LGT SNOW  20  18  92 E5        30.39F FOG     WCI  13
ROCKFORD       FLURRIES  13   9  84 CALM      30.44F
$$


CITY           SKY/WX    TMP DP  RH WIND       PRES   REMARKS
BURLINGTON     CLOUDY    19  17  92 CALM      30.41F
CEDAR RAPIDS   CLOUDY    10   8  92 CALM      30.40F FOG
DES MOINES     FLURRIES  21  16  81 SE7       30.37F WCI  12
KIRKSVILLE     CLOUDY    20  18  92 SE6       30.38F WCI  12
OTTUMWA        MOCLDY     9   6  88 E3        30.39F FOG
ST LOUIS       LGT SNOW  25  22  88 E5        30.41F VSB 3/4 WCI  19
$$


CITY           SKY/WX    TMP DP  RH WIND       PRES   REMARKS
TERRE HAUTE    LGT SNOW  24  22  91 SE7       30.43F VSB 3/4 WCI  16
EVANSVILLE     CLOUDY    32  20  61 NE9       30.45F WCI  24
INDIANAPOLIS   SNOW      22  20  92 SE7       30.42F VSB 1/2 WCI  13
LAFAYETTE      LGT SNOW  20  19  96 E5        30.45F VSB 3/4 WCI  13
MADISON        LGT SNOW  14   9  80 S5        30.41F WCI   6
MILWAUKEE      LGT SNOW  17  11  77 S6        30.44F WCI   9
$$




USA.gov is the U.S. government's official web portal to all federal, state and local government web resources and services.